Regional Weather Roundup
Issued by NWS

Home | Current Version | Previous Version | Graphics & Text | Print | Product List | Glossary On
Versions: 1 2 3 4 5 6 7 8 9 10 11 12 13 14 15 16 17 18 19 20 21 22 23 24 25 26 27 28 29 30 31 32 33 34 35 36 37 38 39 40 41 42 43 44 45 46 47 48 49 50
000
ASUS43 KDTX 251210
RWRMI
MICHIGAN HOURLY REGIONAL WEATHER ROUNDUP
NATIONAL WEATHER SERVICE DETROIT/PONTIAC MI
700 AM EST SAT FEB 25 2017

NOTE: "FAIR" INDICATES FEW OR NO CLOUDS BELOW 12,000 FEET WITH NO
SIGNIFICANT WEATHER AND/OR OBSTRUCTION TO VISIBILITY.

MIZ047>049-052>055-059>063-066>070-074>076-081>083-251300-
SOUTHEAST LOWER MICHIGAN

CITY           SKY/WX    TMP DP  RH WIND       PRES   REMARKS
ADRIAN         LGT RAIN  38  34  85 W14G24    29.54F WCI  30
6HR MIN TEMP:  36; 6HR MAX TEMP:  44; 6HR PCP:  0.02;

ALMA           CLOUDY    32  27  82 SW20G25   29.50R WCI  20
ANN ARBOR      CLOUDY    37  35  92 S9        29.51S WCI  30
BAD AXE        CLEAR     34  28  77 SW15G21   29.45R WCI  24
6HR MIN TEMP:  34; 6HR MAX TEMP:  43;

CARO           CLEAR     33  28  80 SW17      29.45S WCI  22
DETROIT CITY   PTCLDY    39  32  76 SW8       29.51F WCI  33
6HR MIN TEMP:  38; 6HR MAX TEMP:  56;

DETROIT        CLOUDY    40  34  79 SW16      29.53F WCI  31
6HR MIN TEMP:  37; 6HR MAX TEMP:  51;

FLINT          LGT SNOW  34  30  85 W16       29.51R FOG     WCI  24
6HR MIN TEMP:  34; 6HR MAX TEMP:  45; 6HR PCP: TRACE;

GROSSE ILE     PTCLDY    38  33  82 SW6       29.51F WCI  33
6HR MIN TEMP:  38; 6HR MAX TEMP:  52;

HILLSDALE      FLURRIES  34  32  93 W13G21    29.53R WCI  25
HOWELL         DRIZZLE   35  32  90 W12G18    29.51R WCI  27
6HR MIN TEMP:  35; 6HR MAX TEMP:  40;


CITY           SKY/WX    TMP DP  RH WIND       PRES   REMARKS
JACKSON        CLOUDY    35  31  85 W14       29.53R WCI  26
6HR MIN TEMP:  34; 6HR MAX TEMP:  40; 6HR PCP:  0.03;

LAMBERTVILLE   CLOUDY    40  33  76 SW7       29.55S
6HR MIN TEMP:  39; 6HR MAX TEMP:  49;

LANSING        FLURRIES  33  26  75 W16       29.53R WCI  23
6HR MIN TEMP:  33; 6HR MAX TEMP:  39; 6HR PCP: TRACE;

LAPEER         FAIR      35  30  81 W10       29.48R WCI  27
6HR MIN TEMP:  35; 6HR MAX TEMP:  48;

MASON          CLOUDY    34  31  88 W14       29.52R WCI  25
MONROE         MOCLDY    40  36  83 SW20G25   29.52F WCI  31
6HR MIN TEMP:  38; 6HR MAX TEMP:  49;

MT. CLEMENS    CLEAR     37  32  83 S6        29.48F WCI  32
6HR MIN TEMP:  37; 6HR MAX TEMP:  54; 6HR PCP:  0.01;

PONTIAC        MOCLDY    36  31  82 W7        29.48R WCI  30
6HR MIN TEMP:  35; 6HR MAX TEMP:  42;

PORT HOPE        N/A     35  28  75 SW10G26   29.41R WCI  27
6HR MIN TEMP:  35; 6HR MAX TEMP:  46;

PORT HURON     PTCLDY    37  32  81 SW6       29.49S WCI  33
TRI CITIES     CLEAR     33  29  85 SW22      29.47R WCI  21
6HR MIN TEMP:  33; 6HR MAX TEMP:  44;

MIDLAND        CLOUDY    33  28  80 SW16G28   29.45R WCI  23
6HR MIN TEMP:  33; 6HR MAX TEMP:  43;

TROY           CLEAR     38  31  78 SW8       29.52F WCI  32
SAGINAW HB     CLEAR     34  28  80 SW18G24   29.48R WCI  23
$$
MIZ043>046-050>051-056>058-064>065-071>073-077>080-251300-
SOUTHWEST LOWER MICHIGAN

CITY           SKY/WX    TMP DP  RH WIND       PRES   REMARKS
BATTLE CREEK   CLOUDY    31  27  85 W13       29.57R WCI  21
6HR MIN TEMP:  31; 6HR MAX TEMP:  38; 6HR PCP: TRACE;

BENTON HARBOR  LGT SNOW  30  24  78 W16G28    29.63R WCI  19
6HR MIN TEMP:  30; 6HR MAX TEMP:  35; 6HR PCP:  0.01;

BIG RAPIDS     LGT SNOW  29  28  93 W9        29.46R VSB 3/4 WCI  21
6HR MIN TEMP:  29; 6HR MAX TEMP:  37;

COLDWATER      CLOUDY    33  30  90 W14G22    29.57R WCI  23
6HR MIN TEMP:  33; 6HR MAX TEMP:  39;

FREMONT        LGT SNOW  28  26  96 W8        29.53R WCI  19
HOLLAND        LGT SNOW  29  24  82 W13       29.59R WCI  19
6HR MIN TEMP:  29; 6HR MAX TEMP:  33; 6HR PCP: TRACE;

GRAND RAPIDS   FLURRIES  29  24  82 W20G25    29.56R WCI  16
6HR MIN TEMP:  29; 6HR MAX TEMP:  36; 6HR PCP:  0.01;

IONIA          CLOUDY    30  25  80 W21G29    29.53R WCI  18
6HR MIN TEMP:  30; 6HR MAX TEMP:  37;

KALAMAZOO      CLOUDY    31  24  75 W17       29.59R WCI  19
6HR MIN TEMP:  31; 6HR MAX TEMP:  38; 6HR PCP:  0.01;

LUDINGTON      LGT SNOW  26  25  96 NW13G22   29.53R VSB 3/4 WCI  15
6HR MIN TEMP:  26; 6HR MAX TEMP:  33;

MARSHALL       CLOUDY    32  30  94 W13G20    29.55R WCI  22
6HR MIN TEMP:  32; 6HR MAX TEMP:  38;

MOUNT PLEASANT CLOUDY    32  29  89 SW14G24   29.46R WCI  22
6HR MIN TEMP:  32; 6HR MAX TEMP:  40;

MUSKEGON       LGT SNOW  28  24  85 W18G24    29.58R FOG     WCI  15
6HR MIN TEMP:  28; 6HR MAX TEMP:  33; 6HR PCP:  0.02;

SOUTH HAVEN    FLURRIES  29  26  89 NW12G21   29.62R WCI  20
$$
MIZ016>042-251300-
NORTHERN LOWER MICHIGAN

CITY           SKY/WX    TMP DP  RH WIND       PRES   REMARKS
ALPENA         CLOUDY    33  33 100 CALM      29.34S FOG
6HR MIN TEMP:  33; 6HR MAX TEMP:  34;

BEAVER ISLAND  LGT SNOW  24  22  93 NW7       29.41F WCI  16
6HR MIN TEMP:  23; 6HR MAX TEMP:  25;

BELLAIRE       LGT SNOW  27  25  94 CALM      29.44R
6HR MIN TEMP:  26; 6HR MAX TEMP:  32;

CADILLAC       LGT SNOW  28  25  89 W6        29.42R WCI  21
CHARLEVOIX     LGT SNOW  26  25  97 W9        29.44R WCI  16
6HR MIN TEMP:  25; 6HR MAX TEMP:  32;

FRANKFORT      LGT SNOW  27  25  91 NW9G18    29.50R WCI  18
GAYLORD        CLOUDY    26  21  81 W12       29.36R WCI  16
6HR MIN TEMP:  26; 6HR MAX TEMP:  33; 6HR PCP:  0.01;

GRAYLING       LGT SNOW  27  25  91 W8        29.40R WCI  19
6HR MIN TEMP:  27; 6HR MAX TEMP:  35;

HARBOR SPRINGS CLOUDY    25  23  93 W6        29.38S FOG     WCI  18
HOUGHTON LAKE  CLOUDY    28  24  85 W13       29.40R WCI  17
6HR MIN TEMP:  29; 6HR MAX TEMP:  34; 6HR PCP: TRACE;

MANISTEE       LGT SNOW  27  25  92 NW18G26   29.50R FOG     WCI  14
OSCODA         CLOUDY    36  33  88 SW15      29.37S WCI  27
6HR MIN TEMP:  35; 6HR MAX TEMP:  38;

PELLSTON       CLOUDY    24  21  88 W9        29.38S FOG     WCI  14
6HR MIN TEMP:  23; 6HR MAX TEMP:  30; 6HR PCP: TRACE;

ROGERS CITY    LGT SNOW  28  26  95 CALM      29.36R
TRAVERSE CITY  FLURRIES  28  24  85 W13       29.45R WCI  17
6HR MIN TEMP:  28; 6HR MAX TEMP:  33; 6HR PCP: TRACE;

$$
MIZ007>008-015-251300-
EASTERN UPPER MICHIGAN

CITY           SKY/WX    TMP DP  RH WIND       PRES   REMARKS
KINROSS        MIX PCPN  20  19  96 N8        29.34F FOG     WCI  10
6HR MIN TEMP:  20; 6HR MAX TEMP:  21; 6HR PCP: TRACE;

MACKINAC ISLAN CLOUDY    22  22 100 NW9       29.36S WCI  12
6HR MIN TEMP:  22; 6HR MAX TEMP:  26;

NEWBERRY       LGT SNOW  21  20  96 NW7       29.38S WCI  13
6HR MIN TEMP:  19; 6HR MAX TEMP:  22;

S. S. MARIE    CLOUDY    21  18  88 NW5       29.34F FOG     WCI  15
6HR MIN TEMP:  21; 6HR MAX TEMP:  23; 6HR PCP:  0.01;

MUNISING         N/A     22  19  89 N21G30    29.47R WCI   6
6HR MIN TEMP:  22; 6HR MAX TEMP:  26; 6HR PCP:  0.03;

$$
MIZ004>006-011>014-085-251300-
CENTRAL UPPER MICHIGAN

CITY           SKY/WX    TMP DP  RH WIND       PRES   REMARKS
MANISTIQUE     LGT SNOW  22  21  97 NW8       29.43S WCI  12
6HR MIN TEMP:  22; 6HR MAX TEMP:  23;

ESCANABA       LGT SNOW  20  17  88 NW13      29.52R FOG     WCI   7
6HR MIN TEMP:  20; 6HR MAX TEMP:  25; 6HR PCP: TRACE;

MENOMINEE      LGT SNOW  19  16  88 NW10      29.59R FOG     WCI   7
6HR MIN TEMP:  19; 6HR MAX TEMP:  22; 6HR PCP: TRACE;

SAWYER-GWINN   LGT SNOW  18  14  86 NW18      29.49R WCI   2
$$
MIZ001>003-009>011-084-251300-
WESTERN UPPER MICHIGAN

CITY           SKY/WX    TMP DP  RH WIND       PRES   REMARKS
IRON MOUNTAIN  LGT SNOW  17  11  77 NW14      29.54R WCI   3
6HR MIN TEMP:  17; 6HR MAX TEMP:  19; 6HR PCP: TRACE;

HOUGHTON       HAZE      16  11  80 NW18G28   29.57S VSB 1   WCI   0
6HR MIN TEMP:  16; 6HR MAX TEMP:  19; 6HR PCP:  0.02;

COPPER HARBOR    N/A     21  16  81 NE25G33   29.56S WCI   4
6HR MIN TEMP:  20; 6HR MAX TEMP:  22;

IRONWOOD       LGT SNOW  15  12  88 NW16G24   29.68R FOG     WCI  -1
6HR MIN TEMP:  14; 6HR MAX TEMP:  17; 6HR PCP: TRACE;

$$

ABBREVIATIONS USED IN REMARKS
   TC - TEMPERATURE IN CELSIUS
  WCI - WIND CHILL INDEX
   HX - HEAT INDEX
  VSB - VISIBILITY





USA.gov is the U.S. government's official web portal to all federal, state and local government web resources and services.